Snowfall_Accumulation
0.0 0.0 0.0 0.0 0.0 0.0 0.0 0.1 0.1 0.0 0.0 0.0 0.0 0.0 0.0 0.0 0.0 0.0 0.0 0.0 0.0 0.0 0.0 0.0 0.0 0.0 0.0 0.0 0.0 0.0 0.0 0.0 0.0 0.0 0.0 0.0 0.0 0.0 0.0 0.0 0.0 0.0 0.0 0.0
0.0 0.0 0.0 0.0 0.0 0.0 0.0 0.1 0.1 0.0 0.0 0.0 0.0 0.0 0.0 0.0 0.0 0.0 0.0 0.0 0.0 0.0 0.0 0.0 0.0 0.0 0.0 0.0 0.0 0.0 0.0 0.0 0.0 0.0 0.0 0.0 0.0 0.0 0.0 0.0 0.0 0.0 0.0 0.0
0.2 0.0 0.0 0.0 0.0 0.0 0.0 0.1 0.0 0.1 0.0 0.0 0.0 0.1 0.0 0.0 0.0 0.0 0.0 0.0 0.0 0.0 0.0 0.0 0.0 0.0 0.0 0.0 0.0 0.0 0.0 0.0 0.0 0.0 0.0 0.0 0.0 0.0 0.0 0.0 0.0 0.0 0.0 0.0
0.0 0.0 0.0 0.0 0.0 0.0 0.2 0.0 0.0 0.0 0.3 2.4 0.0 4.4 0.0 0.0 0.0 0.0 0.0 0.0 0.0 0.0 0.0 0.0 0.0 0.0 0.0 0.0 0.0 0.0 0.0 0.0 0.0 0.0 0.0 0.0 0.0 0.0 0.0 0.0 0.0 0.0 0.0 0.0
0.1 0.0 0.0 0.0 0.0 0.0 0.2 0.0 0.0 0.0 0.5 0.4 0.0 1.3 0.0 0.0 0.0 0.0 0.0 0.0 0.0 0.0 0.0 0.0 0.0 0.0 0.0 0.0 0.0 0.0 0.0 0.0 0.0 0.0 0.0 0.0 0.0 0.0 0.0 0.0 0.0 0.0 0.0 0.0
0.0 0.0 0.0 0.0 0.0 0.0 0.0 0.0 0.0 0.1 0.2 8.0 0.0 0.1 0.0 0.0 0.0 0.0 0.0 0.0 0.0 0.0 0.0 0.0 0.0 0.0 0.0 0.0 0.0 0.0 0.0 0.0 0.0 0.0 0.0 0.0 0.0 0.0 0.0 0.0 0.0 0.0 0.0 0.0
0.0 0.0 0.0 0.0 0.0 0.0 0.0 0.9 16.3 19.2 25.5 11.9 0.0 0.1 0.0 0.0 0.0 0.0 0.0 0.0 0.0 0.0 0.0 0.0 0.0 0.0 0.0 0.0 0.0 0.0 0.0 0.0 0.0 0.0 0.0 0.0 0.0 0.0 0.0 0.0 0.0 0.0 0.0 0.0
1.0 3.4 0.0 0.0 0.0 0.3 0.2 2.4 10.1 13.8 9.0 3.1 0.0 3.0 0.0 0.0 0.0 0.0 0.0 0.0 0.0 0.0 0.0 0.0 0.0 0.0 0.0 0.0 0.0 0.0 0.0 0.0 0.0 0.0 0.0 0.0 0.0 0.0 0.0 0.0 0.0 0.0 0.0 0.0
1.2 0.4 0.0 0.0 0.0 0.0 2.0 4.6 0.1 8.7 3.5 5.1 0.6 0.1 0.0 0.0 0.0 0.0 0.0 0.0 0.0 0.0 0.0 0.0 0.0 0.0 0.0 0.0 0.0 0.0 0.0 0.0 0.0 0.0 0.0 0.0 0.0 0.0 0.0 0.0 0.0 0.0 0.0 0.0
0.1 2.6 0.0 0.0 0.0 0.0 0.8 0.1 6.3 7.1 14.3 7.3 2.3 0.6 0.3 0.0 0.0 0.0 0.1 0.0 0.0 0.0 0.0 0.0 0.0 0.0 0.0 0.0 0.0 0.0 0.0 0.0 0.0 0.0 0.0 0.0 0.0 0.0 0.0 0.0 0.0 0.1 0.1 0.1
0.1 1.3 0.3 0.0 0.1 0.3 1.8 4.4 3.7 2.9 3.4 8.7 6.3 2.1 0.1 0.1 0.2 1.2 0.5 0.1 0.0 0.0 0.0 0.0 0.0 0.0 0.0 0.0 0.0 0.0 0.0 0.0 0.0 0.0 0.0 0.0 0.0 0.0 0.0 0.1 0.2 0.3 0.6 0.5
0.1 1.4 3.1 0.4 0.0 0.0 0.0 0.7 2.1 9.7 3.1 1.8 5.1 2.8 0.0 0.0 0.0 0.1 0.4 0.1 0.0 0.0 0.0 0.0 0.0 0.0 0.0 0.0 0.0 0.0 0.0 0.0 0.0 0.0 0.0 0.1 0.1 0.1 0.5 2.0 2.0 1.4 3.3 1.7
0.9 4.3 8.4 4.7 2.0 0.0 0.1 0.0 0.3 2.3 3.8 3.0 16.1 3.9 0.0 0.0 0.0 0.0 0.2 0.0 0.0 0.0 0.0 0.0 0.0 0.0 0.0 0.0 0.0 0.0 0.0 0.0 0.0 0.0 0.1 0.3 1.1 2.1 3.7 4.9 3.6 2.4 3.8 4.7
nan 2.0 5.6 3.6 0.6 0.2 0.4 0.1 0.0 6.2 13.1 7.4 3.6 6.3 0.5 1.5 2.5 0.7 0.4 0.3 0.3 0.1 0.2 0.1 0.1 0.1 0.1 0.0 0.0 0.0 0.1 0.1 0.1 0.3 0.4 0.9 1.5 1.7 3.3 4.7 5.6 5.3 3.8 3.7
0.1 6.1 1.2 1.2 0.4 0.5 0.6 0.8 0.7 2.7 3.8 11.3 3.0 5.6 6.7 6.3 11.2 6.5 3.9 0.9 0.9 0.9 1.2 1.1 1.3 0.9 0.6 0.6 0.7 1.6 1.4 0.7 0.6 0.9 2.6 4.4 2.8 3.0 3.9 5.5 5.7 5.2 5.2 5.6
0.0 5.6 0.6 2.9 0.7 0.5 0.8 0.5 0.3 0.7 1.9 1.0 0.8 1.6 0.1 0.4 1.1 3.9 4.0 3.0 2.2 3.5 4.0 3.5 2.6 2.4 1.2 1.5 1.9 2.7 3.7 2.7 1.1 2.6 7.3 5.3 5.0 4.6 4.5 5.1 5.5 5.4 5.4 5.4
0.8 3.6 7.4 13.1 0.3 0.1 11.6 0.1 0.3 1.8 1.2 3.7 5.6 5.1 1.8 4.2 3.8 8.1 4.8 4.8 5.2 5.8 4.6 3.6 3.5 3.4 1.8 2.7 1.7 5.4 5.2 2.3 4.0 5.0 6.3 6.8 6.1 5.4 5.5 4.4 3.6 3.8 3.4 2.7
3.0 4.1 3.9 17.4 6.0 38.9 1.3 0.0 0.1 0.8 0.8 1.3 1.9 2.5 1.1 10.9 4.1 4.6 4.4 5.9 5.8 5.7 6.2 5.1 3.5 3.2 3.3 2.4 2.9 3.4 3.3 4.8 6.4 6.7 7.4 7.3 5.9 4.5 3.7 3.7 3.4 2.8 1.7 1.1
0.4 1.9 19.5 38.0 19.7 0.4 0.0 0.0 0.1 1.1 1.1 0.1 0.4 0.3 0.3 1.0 0.0 1.1 4.6 5.8 7.6 7.5 7.5 6.4 5.3 5.4 5.3 7.1 6.4 6.5 7.5 8.3 6.9 7.5 7.4 6.1 4.5 4.5 3.8 3.6 3.6 2.0 0.8 0.6
0.3 0.6 5.4 28.2 26.4 25.1 0.0 0.0 0.0 0.0 1.3 0.0 0.0 0.1 0.1 0.0 0.6 5.1 6.4 5.5 6.0 6.9 7.7 9.1 8.8 9.8 8.2 8.6 5.6 5.2 7.2 7.5 8.4 7.1 6.3 5.2 3.5 3.2 3.0 1.7 1.1 1.1 0.5 0.4
12.1 18.3 32.7 24.2 24.7 9.1 0.0 0.0 0.0 3.8 0.5 0.0 0.0 0.0 0.0 0.5 4.9 5.4 5.6 4.7 5.5 6.6 7.5 8.0 6.5 6.3 7.3 8.3 4.5 5.4 5.7 5.3 4.9 3.6 4.2 4.1 3.1 2.2 1.4 1.0 0.6 0.3 0.3 0.1
4.3 13.2 27.3 20.5 25.0 29.7 0.0 0.0 0.0 0.1 0.0 0.0 0.0 0.0 0.0 0.0 0.4 2.6 2.8 3.3 3.4 4.0 5.3 5.9 3.1 4.4 7.1 6.7 1.7 3.7 2.0 3.9 3.0 1.7 1.9 1.8 1.9 1.2 0.7 0.9 0.3 0.6 0.2 0.3
4.5 0.4 2.1 0.7 2.3 0.0 0.0 0.0 0.0 0.0 0.0 0.0 0.0 0.0 0.0 0.0 0.1 0.3 0.8 0.7 0.9 1.2 1.3 2.0 0.9 0.5 1.4 2.1 0.2 0.1 1.6 1.1 1.4 1.8 3.0 2.1 1.5 1.2 0.7 1.2 0.7 2.0 0.5 1.6
0.0 0.0 0.5 0.5 0.0 0.0 0.0 0.0 0.0 0.0 0.0 0.0 0.0 0.0 0.0 0.0 0.0 0.0 0.1 0.3 0.2 0.5 0.7 1.3 1.1 0.8 0.6 0.6 0.7 0.5 0.7 0.8 4.0 4.2 2.4 1.3 1.5 0.8 1.1 2.0 2.0 2.9 2.6 2.5
0.4 0.2 1.5 1.4 0.0 0.0 0.0 0.0 0.0 0.0 0.0 0.0 0.0 0.0 0.0 0.0 0.0 0.0 0.2 0.3 0.2 0.4 0.7 1.3 1.5 1.1 0.9 0.8 0.9 1.6 1.5 1.7 2.9 3.5 1.6 1.3 2.1 2.4 1.6 1.5 2.4 2.1 0.8 2.3
0.6 0.4 0.7 0.7 0.0 0.0 0.0 0.0 0.0 0.1 0.1 0.1 0.2 0.1 0.1 0.1 0.0 0.1 0.4 0.3 0.4 0.8 1.1 1.6 2.0 1.7 1.8 2.2 2.5 3.0 3.7 3.7 4.3 2.6 3.5 3.0 3.0 2.6 2.3 2.6 2.8 nan nan nan
Water_Equivalent
0.00 0.00 0.00 0.00 0.00 0.00 0.00 0.02 0.02 0.00 0.00 0.00 0.00 0.00 0.00 0.00 0.00 0.00 0.00 0.00 0.00 0.00 0.00 0.00 0.00 0.00 0.00 0.00 0.00 0.00 0.00 0.00 0.00 0.00 0.00 0.00 0.00 0.00 0.00 0.00 0.00 0.00 0.00 0.00
0.00 0.01 0.00 0.00 0.00 0.00 0.00 0.02 0.04 0.00 0.00 0.00 0.00 0.00 0.00 0.00 0.00 0.00 0.00 0.00 0.00 0.00 0.00 0.00 0.00 0.00 0.00 0.00 0.00 0.00 0.00 0.00 0.00 0.00 0.00 0.00 0.00 0.00 0.00 0.00 0.00 0.00 0.00 0.00
0.04 0.00 0.00 0.00 0.00 0.00 0.00 0.02 0.01 0.01 0.00 0.00 0.00 0.02 0.00 0.00 0.00 0.00 0.00 0.00 0.00 0.00 0.00 0.00 0.00 0.00 0.00 0.00 0.00 0.00 0.00 0.00 0.00 0.00 0.00 0.00 0.00 0.00 0.00 0.00 0.00 0.00 0.00 0.00
0.00 0.00 0.00 0.00 0.01 0.00 0.04 0.00 0.00 0.00 0.07 0.47 0.00 0.86 0.00 0.00 0.00 0.00 0.00 0.00 0.00 0.00 0.00 0.00 0.00 0.00 0.00 0.00 0.00 0.00 0.00 0.00 0.00 0.00 0.00 0.00 0.00 0.00 0.00 0.00 0.00 0.00 0.00 0.00
0.01 0.00 0.00 0.00 0.00 0.00 0.05 0.00 0.00 0.00 0.12 0.08 0.01 0.22 0.00 0.00 0.00 0.00 0.00 0.00 0.00 0.00 0.00 0.00 0.00 0.00 0.00 0.00 0.00 0.00 0.00 0.00 0.00 0.00 0.00 0.00 0.00 0.00 0.00 0.00 0.00 0.00 0.00 0.00
0.00 0.00 0.00 0.00 0.00 0.00 0.00 0.00 0.00 0.02 0.05 1.59 0.01 0.01 0.00 0.00 0.00 0.00 0.00 0.00 0.00 0.00 0.00 0.00 0.00 0.00 0.00 0.00 0.00 0.00 0.00 0.00 0.00 0.00 0.00 0.00 0.00 0.00 0.00 0.00 0.00 0.00 0.00 0.00
0.00 0.00 0.00 0.00 0.01 0.00 0.00 0.23 3.02 3.84 4.68 2.16 0.00 0.01 0.00 0.00 0.00 0.00 0.00 0.00 0.00 0.00 0.00 0.00 0.00 0.00 0.00 0.00 0.00 0.00 0.00 0.00 0.00 0.00 0.00 0.00 0.00 0.00 0.00 0.00 0.00 0.00 0.00 0.00
0.23 0.66 0.00 0.00 0.01 0.06 0.05 0.59 1.56 1.56 1.26 0.52 0.00 0.59 0.00 0.00 0.00 0.00 0.00 0.00 0.00 0.00 0.00 0.00 0.00 0.00 0.00 0.00 0.00 0.00 0.00 0.00 0.00 0.00 0.00 0.00 0.00 0.00 0.00 0.00 0.00 0.00 0.00 0.00
0.20 0.09 0.00 0.00 0.00 0.00 0.42 0.92 0.01 1.25 0.65 0.75 0.18 0.02 0.00 0.00 0.00 0.00 0.00 0.00 0.00 0.00 0.00 0.00 0.00 0.00 0.00 0.00 0.00 0.00 0.00 0.00 0.00 0.00 0.00 0.00 0.00 0.00 0.00 0.00 0.00 0.00 0.01 0.01
0.03 0.35 0.00 0.00 0.00 0.00 0.21 0.01 0.99 1.42 2.01 0.94 0.42 0.12 0.07 0.01 0.00 0.00 0.02 0.00 0.00 0.00 0.00 0.00 0.00 0.00 0.00 0.00 0.00 0.00 0.00 0.00 0.00 0.00 0.00 0.00 0.00 0.00 0.00 0.00 0.02 0.03 0.04 0.04
0.02 0.18 0.08 0.01 0.03 0.06 0.41 0.94 0.73 0.48 0.64 1.21 0.84 0.35 0.02 0.03 0.04 0.20 0.07 0.02 0.00 0.00 0.00 0.00 0.00 0.00 0.00 0.00 0.00 0.00 0.00 0.00 0.00 0.00 0.00 0.00 0.00 0.00 0.00 0.03 0.05 0.09 0.13 0.11
0.03 0.31 0.58 0.10 0.00 0.00 0.01 0.16 0.36 1.30 0.46 0.30 0.69 0.37 0.00 0.00 0.00 0.01 0.06 0.02 0.00 0.00 0.00 0.00 0.00 0.00 0.00 0.00 0.00 0.00 0.00 0.00 0.00 0.00 0.00 0.02 0.03 0.03 0.10 0.43 0.42 0.30 0.71 0.42
0.28 0.97 1.57 0.80 0.38 0.01 0.03 0.00 0.05 0.34 0.67 0.44 1.99 0.57 0.00 0.00 0.01 0.00 0.02 0.00 0.00 0.00 0.00 0.00 0.00 0.00 0.00 0.00 0.00 0.00 0.00 0.00 0.01 0.00 0.03 0.08 0.26 0.47 0.79 1.04 0.84 0.65 1.03 1.15
nan 0.43 0.77 0.47 0.09 0.05 0.08 0.02 0.01 0.84 1.98 1.00 0.57 0.88 0.10 0.27 0.44 0.13 0.08 0.05 0.04 0.02 0.03 0.02 0.01 0.02 0.01 0.00 0.00 0.01 0.03 0.02 0.04 0.07 0.09 0.20 0.35 0.37 0.73 1.10 1.48 1.41 1.07 0.96
0.01 1.23 0.23 0.23 0.08 0.09 0.09 0.12 0.12 0.38 0.58 1.38 0.48 0.77 1.04 1.10 1.83 1.16 0.66 0.17 0.16 0.16 0.20 0.20 0.22 0.18 0.14 0.17 0.19 0.38 0.34 0.19 0.16 0.22 0.61 1.00 0.62 0.68 0.98 1.44 1.50 1.28 1.17 1.10
0.01 1.25 0.11 0.56 0.12 0.09 0.13 0.08 0.06 0.12 0.36 0.17 0.13 0.27 0.03 0.09 0.21 0.74 0.76 0.59 0.41 0.59 0.68 0.57 0.50 0.50 0.30 0.36 0.42 0.64 0.91 0.63 0.24 0.62 1.36 1.15 1.29 1.26 1.13 1.08 1.05 1.00 0.93 0.93
0.18 0.72 2.04 3.01 0.06 0.03 2.04 0.01 0.05 0.28 0.20 0.55 0.68 0.69 0.31 0.60 0.62 1.26 0.77 0.81 0.84 0.96 0.80 0.69 0.75 0.87 0.45 0.60 0.41 1.05 1.05 0.55 0.82 1.03 1.53 1.78 1.39 1.08 1.05 0.81 0.66 0.68 0.55 0.41
0.63 1.05 1.11 3.89 1.57 6.34 0.26 0.00 0.02 0.12 0.14 0.23 0.31 0.39 0.19 1.56 0.67 0.75 0.70 0.90 0.89 0.84 1.03 0.91 0.75 0.87 0.83 0.68 0.73 0.86 0.93 1.21 1.38 1.41 1.43 1.38 1.10 0.82 0.72 0.64 0.50 0.39 0.24 0.15
0.08 0.34 4.03 6.81 3.39 0.10 0.00 0.00 0.01 0.16 0.17 0.03 0.07 0.06 0.05 0.19 0.01 0.20 0.74 0.90 1.14 1.15 1.25 1.11 1.09 1.20 1.32 1.51 1.28 1.26 1.37 1.67 1.43 1.34 1.24 1.02 0.76 0.71 0.57 0.48 0.46 0.26 0.11 0.08
0.08 0.12 1.03 5.78 4.97 3.69 0.00 0.00 0.00 0.00 0.20 0.00 0.01 0.02 0.02 0.00 0.08 0.70 1.01 0.86 0.91 1.05 1.20 1.46 1.50 1.78 1.31 1.35 0.89 0.76 0.96 0.98 1.11 0.99 0.95 0.77 0.49 0.46 0.39 0.22 0.14 0.15 0.07 0.05
2.55 4.25 6.47 4.80 4.95 1.95 0.01 0.00 0.00 0.64 0.09 0.00 0.00 0.00 0.00 0.07 0.77 0.85 0.86 0.74 0.85 1.00 1.14 1.19 0.99 0.93 1.04 1.25 0.66 0.69 0.70 0.60 0.60 0.46 0.53 0.52 0.39 0.28 0.18 0.12 0.09 0.05 0.04 0.02
0.72 2.41 5.10 3.76 4.49 4.53 0.00 0.00 0.01 0.02 0.00 0.00 0.00 0.00 0.00 0.00 0.07 0.40 0.41 0.48 0.53 0.60 0.79 0.86 0.45 0.58 0.97 0.94 0.23 0.44 0.23 0.46 0.37 0.21 0.24 0.23 0.28 0.17 0.10 0.20 0.07 0.16 0.06 0.08
0.72 0.08 0.54 0.16 0.55 0.01 0.00 0.00 0.00 0.00 0.00 0.00 0.00 0.00 0.00 0.00 0.01 0.05 0.11 0.11 0.13 0.18 0.19 0.32 0.12 0.08 0.18 0.27 0.05 0.02 0.19 0.15 0.21 0.31 0.52 0.40 0.30 0.25 0.16 0.28 0.14 0.49 0.13 0.37
0.01 0.00 0.14 0.11 0.00 0.00 0.00 0.00 0.00 0.00 0.00 0.00 0.00 0.00 0.00 0.00 0.00 0.01 0.02 0.04 0.03 0.07 0.12 0.21 0.17 0.13 0.10 0.10 0.12 0.10 0.12 0.14 0.78 0.79 0.37 0.21 0.27 0.18 0.20 0.44 0.46 0.67 0.56 0.50
0.09 0.05 0.28 0.28 0.00 0.00 0.00 0.00 0.00 0.00 0.00 0.00 0.00 0.00 0.00 0.00 0.00 0.00 0.04 0.06 0.04 0.06 0.10 0.19 0.21 0.15 0.13 0.12 0.13 0.25 0.22 0.29 0.48 0.53 0.22 0.22 0.40 0.45 0.28 0.29 0.51 0.42 0.18 0.49
0.10 0.06 0.13 0.16 0.01 0.01 0.01 0.00 0.01 0.02 0.02 0.02 0.03 0.02 0.02 0.02 0.01 0.03 0.06 0.04 0.07 0.11 0.13 0.18 0.22 0.19 0.19 0.24 0.28 0.38 0.53 0.55 0.60 0.31 0.50 0.50 0.51 0.44 0.38 0.40 0.45 nan nan nan
SL_Ratio
nan nan nan nan nan nan nan 2.5 2.6 nan nan nan nan nan nan nan nan nan nan nan nan nan nan nan nan nan nan nan nan nan nan nan nan nan nan nan nan nan nan nan nan nan nan nan
nan 3.3 nan nan nan nan nan 3.6 4.0 nan nan nan nan nan nan nan nan nan nan nan nan nan nan nan nan nan nan nan nan nan nan nan nan nan nan nan nan nan nan nan nan nan nan nan
4.2 nan nan nan nan nan nan 4.4 4.1 4.3 nan nan nan 3.5 nan nan nan nan nan nan nan nan nan nan nan nan nan nan nan nan nan nan nan nan nan nan nan nan nan nan nan nan nan nan
nan nan nan nan 3.0 nan 4.6 nan nan nan 4.4 5.0 5.0 5.1 nan nan nan nan nan nan nan nan nan nan nan nan nan nan nan nan nan nan nan nan nan nan nan nan nan nan nan nan nan nan
5.7 nan nan 5.0 nan nan 4.5 nan nan nan 4.4 5.4 4.6 5.8 nan nan nan nan nan nan nan nan nan nan nan nan nan nan nan nan nan nan nan nan nan nan nan nan nan nan nan nan nan nan
nan nan nan nan nan nan nan nan 2.5 3.4 3.8 5.1 4.5 4.8 nan nan nan nan nan nan nan nan nan nan nan nan nan nan nan nan nan nan nan nan nan nan nan nan nan nan nan nan nan nan
nan nan nan nan 3.2 nan nan 3.9 5.4 5.0 5.4 5.5 8.0 5.3 5.0 5.0 nan nan nan nan nan nan nan nan nan nan nan nan nan nan nan nan nan nan nan nan nan nan nan nan nan nan nan nan
4.4 5.2 nan nan 2.9 4.0 4.3 4.1 6.5 8.9 7.2 6.0 nan 5.0 nan nan nan nan nan nan nan nan nan nan nan nan nan nan nan nan nan nan nan nan nan nan nan nan nan nan nan nan nan nan
5.8 4.2 nan nan 5.0 nan 4.8 5.0 4.5 6.9 5.4 6.8 3.5 3.6 nan nan nan nan nan nan nan nan nan nan nan nan nan nan nan nan nan nan nan nan nan nan nan nan nan nan nan nan 2.5 2.5
5.2 7.5 nan nan nan nan 3.9 4.5 6.4 5.0 7.1 7.8 5.6 5.0 4.4 2.7 nan 6.4 6.2 nan 5.0 nan nan nan nan nan nan nan nan nan nan nan nan nan nan nan nan nan nan nan 2.5 2.6 2.6 2.9
4.5 7.2 4.2 4.0 3.1 4.9 4.4 4.7 5.1 6.1 5.4 7.1 7.5 5.9 4.2 2.9 5.9 6.3 6.2 6.5 7.1 nan nan nan nan nan nan nan nan nan nan nan nan nan nan nan nan nan nan 2.7 3.0 4.0 4.4 4.2
4.7 4.6 5.4 4.3 nan nan 3.8 4.6 5.8 7.4 6.7 6.0 7.4 7.6 nan nan 5.0 5.6 6.0 6.2 nan nan nan nan nan nan nan nan nan nan nan nan nan nan nan 2.6 2.5 2.8 4.4 4.6 4.8 4.6 4.6 3.9
3.3 4.5 5.3 5.8 5.2 3.3 3.5 5.0 6.2 6.9 5.7 6.9 8.1 6.7 nan nan 3.1 5.0 6.8 7.0 9.0 5.0 nan nan 5.0 nan nan nan nan nan nan 2.0 2.2 nan 3.2 3.6 4.2 4.5 4.7 4.7 4.3 3.8 3.7 4.1
nan 4.7 7.2 7.6 6.8 5.2 5.5 3.1 3.9 7.4 6.6 7.4 6.3 7.2 4.9 5.4 5.7 5.6 5.4 6.8 7.8 7.4 7.4 7.3 7.2 6.7 6.1 3.6 5.0 2.7 2.9 2.9 3.2 3.8 4.1 4.4 4.5 4.6 4.6 4.3 3.8 3.7 3.5 3.8
4.6 4.9 5.1 5.4 4.9 5.5 6.7 6.6 5.8 7.1 6.6 8.2 6.4 7.2 6.5 5.7 6.2 5.6 5.9 5.0 5.7 5.4 5.9 5.8 5.7 5.1 4.1 3.8 3.9 4.2 4.2 4.0 3.9 4.1 4.3 4.4 4.5 4.4 4.0 3.8 3.8 4.1 4.5 5.1
2.8 4.5 5.5 5.2 5.6 5.9 6.6 5.8 6.0 5.4 5.3 5.9 6.0 6.1 4.3 4.4 5.2 5.3 5.3 5.1 5.5 5.9 5.9 6.0 5.2 4.7 4.1 4.1 4.4 4.2 4.1 4.3 4.4 4.3 5.4 4.6 3.9 3.6 4.0 4.7 5.3 5.4 5.8 5.8
4.5 5.0 3.6 4.4 5.6 4.5 5.7 6.7 5.8 6.2 5.9 6.8 8.2 7.4 5.7 6.9 6.0 6.4 6.3 5.9 6.2 6.1 5.8 5.1 4.6 3.9 4.1 4.4 4.1 5.2 4.9 4.2 4.8 4.8 4.1 3.8 4.4 5.0 5.2 5.4 5.4 5.7 6.2 6.6
4.7 3.9 3.5 4.5 3.8 6.1 5.1 nan 5.0 6.2 5.5 5.4 6.2 6.5 6.0 7.0 6.1 6.2 6.2 6.6 6.5 6.8 6.1 5.6 4.7 3.7 4.0 3.5 4.0 3.9 3.5 3.9 4.6 4.7 5.2 5.3 5.3 5.5 5.2 5.8 6.8 7.3 7.2 7.4
4.7 5.7 4.8 5.6 5.8 4.3 nan nan 5.8 6.9 6.7 4.8 5.8 5.2 5.0 5.6 4.7 5.6 6.2 6.4 6.6 6.5 6.0 5.8 4.9 4.5 4.0 4.7 5.0 5.2 5.4 5.0 4.9 5.6 5.9 6.0 6.0 6.3 6.8 7.5 7.9 7.8 7.5 7.4
4.5 5.3 5.3 4.9 5.3 6.8 5.0 nan nan nan 6.3 3.3 4.4 4.7 5.9 nan 7.6 7.3 6.4 6.5 6.6 6.6 6.4 6.2 5.8 5.5 6.2 6.4 6.3 6.8 7.4 7.6 7.6 7.2 6.7 6.7 7.1 7.0 7.8 7.9 7.7 7.5 7.2 7.1
4.8 4.3 5.1 5.0 5.0 4.7 2.8 nan nan 5.9 6.3 5.0 5.0 4.0 6.3 7.0 6.3 6.3 6.5 6.4 6.4 6.5 6.6 6.7 6.5 6.8 7.1 6.6 6.9 7.8 8.1 8.8 8.1 7.8 7.8 7.9 8.0 7.8 7.8 7.7 7.2 6.4 6.3 5.3
5.9 5.5 5.3 5.4 5.6 6.6 nan nan 5.0 4.4 nan nan nan nan nan 5.0 5.3 6.7 6.9 7.0 6.4 6.7 6.7 6.8 7.0 7.5 7.3 7.1 7.4 8.4 8.7 8.5 8.1 7.9 8.1 7.8 6.8 7.0 6.9 4.4 4.0 3.6 3.4 3.7
6.3 5.4 4.0 4.6 4.1 3.5 nan nan nan nan nan nan nan 5.0 nan nan 5.0 6.1 7.1 6.8 6.8 6.9 6.7 6.5 7.0 6.7 7.8 7.7 4.7 4.7 8.5 7.0 6.7 5.9 5.7 5.3 5.0 4.8 4.5 4.2 4.6 4.1 4.0 4.3
3.3 5.0 3.3 4.9 0.0 nan nan nan nan nan nan nan 6.7 5.0 nan 7.5 6.7 7.5 7.6 7.4 6.9 6.2 6.2 6.0 6.3 6.5 5.9 5.7 6.1 5.6 5.9 5.6 5.1 5.3 6.5 6.1 5.5 4.6 5.2 4.5 4.3 4.3 4.6 5.0
4.2 3.9 5.6 5.0 5.0 nan nan nan nan nan nan nan nan nan nan nan 10.0 6.7 4.4 5.2 5.7 6.5 7.0 7.1 7.1 7.0 7.0 6.9 6.9 6.5 6.8 6.1 6.1 6.5 7.5 5.6 5.2 5.3 5.6 5.4 4.8 5.0 4.8 4.6
5.8 7.2 5.5 4.5 5.0 4.7 4.4 5.0 5.0 5.5 5.8 5.7 6.1 4.4 3.7 3.7 3.9 4.4 6.1 5.8 6.5 7.5 8.5 8.8 9.1 9.3 9.5 9.0 8.8 8.1 7.0 6.7 7.2 8.2 6.8 6.1 5.9 5.9 6.1 6.4 6.4 nan nan nan